Track IRIDIUM 102 now! 10-day predictions IRIDIUM 102 is classified as:
1 41920U 17003D 24325.49043842 .00000140 00000-0 42875-4 0 9992 2 41920 86.3949 328.1659 0002197 92.3619 267.7828 14.34217365411057